JTM125 WSSS-WMKK

Flight info

Callsign JTM125
Flight time N/A
Altitude 30000
Route MASBO A457 GUPTA
Aircraft B738/M-SDE2FGHIRWY/L

Departure

Time 2026-05-01 15:20
Airport Singapore Changi Airport (WSSS)

Arrival

Time N/A
Airport Kuala Lumpur International Airport (WMKK)
Time Latitude Longitude Altitude Speed Heading
2026-05-01 15:09 1.36437 103.99299 35 ft 0 kts 142°
2026-05-01 15:12 1.36448 103.99291 35 ft 3 kts 142°
2026-05-01 15:12 1.36482 103.99265 34 ft 3 kts 148°
2026-05-01 15:12 1.36491 103.99252 34 ft 2 kts 51°
2026-05-01 15:13 1.36623 103.99292 32 ft 15 kts 314°
2026-05-01 15:14 1.36715 103.99091 29 ft 17 kts 294°
2026-05-01 15:14 1.36764 103.98977 28 ft 18 kts 292°
2026-05-01 15:14 1.36802 103.98755 29 ft 16 kts 218°
2026-05-01 15:15 1.36562 103.98646 29 ft 25 kts 204°
2026-05-01 15:15 1.36250 103.98513 31 ft 24 kts 204°
2026-05-01 15:16 1.35940 103.98382 31 ft 24 kts 204°
2026-05-01 15:16 1.35621 103.98249 30 ft 24 kts 204°
2026-05-01 15:17 1.35311 103.98119 29 ft 23 kts 204°
2026-05-01 15:18 1.34960 103.97953 33 ft 10 kts 256°
2026-05-01 15:18 1.34964 103.97925 33 ft 0 kts 294°
2026-05-01 15:19 1.34965 103.97923 33 ft 2 kts 294°
2026-05-01 15:19 1.35179 103.97865 33 ft 43 kts 21°
2026-05-01 15:19 1.35740 103.98100 34 ft 125 kts 22°
2026-05-01 15:20 1.37977 103.99032 640 ft 201 kts 23°
2026-05-01 15:20 1.39292 103.99576 1601 ft 208 kts 24°
2026-05-01 15:20 1.40607 104.00137 2615 ft 212 kts 26°
2026-05-01 15:21 1.41985 104.00758 3481 ft 224 kts 26°
2026-05-01 15:21 1.43423 104.01394 4304 ft 236 kts 25°
2026-05-01 15:21 1.44990 104.02047 5095 ft 251 kts 24°
2026-05-01 15:21 1.46650 104.02731 5839 ft 267 kts 24°
2026-05-01 15:22 1.50341 104.03621 7593 ft 287 kts 355°
2026-05-01 15:22 1.52265 104.03047 8539 ft 294 kts 336°
2026-05-01 15:22 1.54097 104.02124 9441 ft 300 kts 333°
2026-05-01 15:23 1.55938 104.01143 10344 ft 305 kts 333°
2026-05-01 15:23 1.57815 104.00155 11291 ft 308 kts 334°
2026-05-01 15:23 1.59754 103.99159 12119 ft 316 kts 335°
2026-05-01 15:23 1.61763 103.98147 12712 ft 332 kts 335°
2026-05-01 15:24 1.63882 103.97089 13297 ft 348 kts 335°
2026-05-01 15:24 1.66099 103.95984 13835 ft 364 kts 335°
2026-05-01 15:24 1.68414 103.94829 14360 ft 381 kts 335°
2026-05-01 15:24 1.70828 103.93574 14853 ft 397 kts 332°
2026-05-01 15:25 1.73083 103.91915 15567 ft 408 kts 319°
2026-05-01 15:25 1.74876 103.89693 16345 ft 417 kts 303°
2026-05-01 15:25 1.76069 103.87056 17085 ft 425 kts 289°
2026-05-01 15:25 1.76773 103.84180 17782 ft 432 kts 282°
2026-05-01 15:26 1.77295 103.81207 18500 ft 437 kts 280°
2026-05-01 15:26 1.77739 103.78212 19195 ft 442 kts 279°
2026-05-01 15:26 1.78165 103.75153 19863 ft 447 kts 279°
2026-05-01 15:26 1.78592 103.72067 20479 ft 453 kts 279°
2026-05-01 15:27 1.79032 103.68945 21126 ft 458 kts 279°
2026-05-01 15:27 1.79478 103.65768 21755 ft 462 kts 278°
2026-05-01 15:27 1.79924 103.62588 22393 ft 466 kts 278°
2026-05-01 15:28 1.80831 103.56155 23675 ft 472 kts 278°
2026-05-01 15:28 1.81293 103.52900 24321 ft 475 kts 279°
2026-05-01 15:28 1.81757 103.49647 24931 ft 478 kts 279°
2026-05-01 15:29 1.82699 103.43066 26294 ft 480 kts 279°
2026-05-01 15:29 1.83167 103.39799 27214 ft 474 kts 279°
2026-05-01 15:29 1.84113 103.33362 28837 ft 467 kts 280°
2026-05-01 15:30 1.85644 103.27050 29883 ft 469 kts 290°
2026-05-01 15:31 1.93961 103.09703 29906 ft 460 kts 298°
2026-05-01 15:32 1.99685 102.98267 29907 ft 460 kts 298°
2026-05-01 15:34 2.08147 102.81033 29864 ft 454 kts 297°